Weather in Kishkino

Russia / Tambov Oblast     52°20′23″N   42°23′22″E
temp.,
°C
wind,
m/s
gust,
m/s
humid.,
%
clouds,
%
prec.,
mm/h
press.,
hPa
HPBL,
m
29 june, wed
wed2900:00+13ne34780 0.0 101961
03:00+11ne35770 0.0 102071
06:00+13ne35770 0.0 1020172
09:00+18ne45560 0.0 10201053
12:00+20ne45450 0.0 10201820
15:00+21ne44449 0.0 10192092
18:00+20ne34550 0.0 10191535
21:00+14ene34733 0.0 101944
30 june, thu
thu3000:00+12ese22762 0.0 102011
03:00+11sw11800 0.0 101910
06:00+13wnw22740 0.0 1019102
09:00+19wnw23581 0.0 1018830
12:00+21nw454682 0.1 10172272
15:00+22nnw3545100 0.1 10152016
18:00+19wnw2363100 0.0 101476
21:00+18nnw366128 0.0 1015116
1 july, fri
fri100:00+16wnw3861100 0.0 1014194
03:00+12nnw378510 0.0 1014107
06:00+15nnw4107392 0.0 1013302
09:00+18nne796065 0.0 10141147
12:00+18n89465 0.0 10151944
15:00+18n8104312 0.0 10162375
18:00+16ne5105614 0.0 10171435
21:00+11n48695 0.0 1018153
2 july, sat
sat200:00+10nnw513744 0.0 1017263
03:00+11nnw615680 0.0 1017355
06:00+12nnw614725 0.0 1017465
09:00+18nnw711545 0.0 10171291
12:00+21n79435 0.0 10161863
15:00+22n69415 0.0 10152216
18:00+21nnw595615 0.0 1014707
21:00+15nw3369100 0.0 101432
3 july, sun
sun300:00+14nw228997 0.3 101424
03:00+15w359262 0.8 1012118
06:00+15n239215 0.1 1012150
09:00+21n33693 0.1 1012629
12:00+24nnw345918 0.3 10121318
15:00+24n555598 0.8 10121500
18:00+22n57674 0.0 1013854
21:00+17n36840 0.0 101486